When you browse on this site, cookies collect data to enhance your experience and personalize the content and advertising you see.
Visit our Privacy Policy to learn more. By continuing to use the site, you agree to this use of cookies and data.
  • în România
  • Lista ţărilor
  • Pe 7 zile
  • Temperatura apei
  • Hartă satelitară
  • Meteo pe hartă
  • Widget-uri
  • user-avatar
    Intrare

    Meteo pe oră la Novoterskiy

    Astăzi, 16 Ianuarie, Miercuri

    Timp Temperatura Precipitaţii Vânt Presiune Umiditate
    00:00 -1°C° 0 mm 2 m/s 717 mmHg 79%
    01:00 +1°C° 0 mm 2 m/s 716 mmHg 76%
    02:00 +1°C° 0 mm 2 m/s 716 mmHg 73%
    03:00 +2°C° 0 mm 1 m/s 716 mmHg 77%
    04:00 +3°C° 0 mm 1 m/s 716 mmHg 73%
    05:00 +3°C° 0 mm 1 m/s 716 mmHg 69%
    06:00 +4°C° 0 mm 1 m/s 716 mmHg 65%
    07:00 +5°C° 0 mm 1 m/s 716 mmHg 62%
    08:00 +5°C° 0 mm 1 m/s 716 mmHg 59%
    09:00 +6°C° 0 mm 1 m/s 715 mmHg 54%
    10:00 +6°C° 0 mm 2 m/s 716 mmHg 54%
    11:00 +7°C° 0 mm 3 m/s 717 mmHg 54%
    12:00 +8°C° 0 mm 3 m/s 717 mmHg 53%
    13:00 +5°C° 0 mm 5 m/s 718 mmHg 62%
    14:00 +3°C° 0 mm 6 m/s 719 mmHg 72%
    15:00 0°C° 0 mm 8 m/s 719 mmHg 81%
    16:00 -1°C° 0 mm 7 m/s 720 mmHg 81%
    17:00 -2°C° 0 mm 6 m/s 721 mmHg 81%
    18:00 -2°C° 0 mm 5 m/s 721 mmHg 81%
    19:00 -2°C° 0.1 mm 5 m/s 722 mmHg 80%
    20:00 -2°C° 0.1 mm 5 m/s 722 mmHg 79%
    21:00 -4°C° 0.1 mm 5 m/s 723 mmHg 79%
    22:00 -3°C° 0 mm 4 m/s 723 mmHg 77%
    23:00 -2°C° 0 mm 3 m/s 724 mmHg 76%

    Mâine, 17 Ianuarie, Joi

    Timp Temperatura Precipitaţii Vânt Presiune Umiditate
    00:00 -2°C° 0 mm 3 m/s 724 mmHg 75%
    01:00 -2°C° 0 mm 2 m/s 724 mmHg 74%
    02:00 -2°C° 0 mm 2 m/s 725 mmHg 74%
    03:00 -2°C° 0 mm 2 m/s 725 mmHg 74%
    04:00 0°C° 0 mm 1 m/s 725 mmHg 75%
    05:00 -1°C° 0 mm 1 m/s 726 mmHg 75%
    06:00 -1°C° 0 mm 1 m/s 726 mmHg 76%
    07:00 0°C° 0 mm 1 m/s 727 mmHg 75%
    08:00 -1°C° 0 mm 0 m/s 727 mmHg 75%
    09:00 -1°C° 0 mm 0 m/s 728 mmHg 74%
    10:00 -1°C° 0 mm 0 m/s 728 mmHg 72%
    11:00 +1°C° 0 mm 1 m/s 728 mmHg 70%
    12:00 +1°C° 0 mm 1 m/s 729 mmHg 67%
    13:00 +1°C° 0 mm 1 m/s 729 mmHg 67%
    14:00 +2°C° 0 mm 1 m/s 729 mmHg 66%
    15:00 +2°C° 0 mm 1 m/s 729 mmHg 66%
    16:00 +1°C° 0 mm 1 m/s 730 mmHg 71%
    17:00 0°C° 0 mm 1 m/s 730 mmHg 76%
    18:00 0°C° 0 mm 1 m/s 731 mmHg 81%
    19:00 0°C° 0 mm 1 m/s 731 mmHg 81%
    20:00 -1°C° 0 mm 1 m/s 732 mmHg 82%
    21:00 -1°C° 0 mm 1 m/s 732 mmHg 82%
    22:00 0°C° 0 mm 1 m/s 732 mmHg 79%
    23:00 0°C° 0 mm 1 m/s 732 mmHg 77%

    Poimâine, 18 Ianuarie, Vineri

    Timp Temperatura Precipitaţii Vânt Presiune Umiditate
    00:00 0°C° 0 mm 1 m/s 733 mmHg 74%
    01:00 0°C° 0 mm 1 m/s 733 mmHg 72%
    02:00 0°C° 0 mm 1 m/s 733 mmHg 69%
    03:00 0°C° 0 mm 1 m/s 733 mmHg 66%
    04:00 0°C° 0 mm 1 m/s 733 mmHg 64%
    05:00 0°C° 0 mm 1 m/s 733 mmHg 61%
    06:00 0°C° 0 mm 1 m/s 733 mmHg 58%
    07:00 +1°C° 0 mm 1 m/s 733 mmHg 54%
    08:00 +1°C° 0 mm 1 m/s 734 mmHg 51%
    09:00 +2°C° 0 mm 1 m/s 734 mmHg 48%
    10:00 +3°C° 0 mm 1 m/s 734 mmHg 44%
    11:00 +3°C° 0 mm 0 m/s 733 mmHg 41%
    12:00 +4°C° 0 mm 0 m/s 733 mmHg 38%
    13:00 +5°C° 0 mm 1 m/s 732 mmHg 40%
    14:00 +5°C° 0 mm 1 m/s 732 mmHg 43%
    15:00 +5°C° 0 mm 1 m/s 732 mmHg 46%
    16:00 +4°C° 0 mm 1 m/s 732 mmHg 51%
    17:00 +2°C° 0 mm 2 m/s 732 mmHg 57%
    18:00 -1°C° 0 mm 2 m/s 732 mmHg 62%
    19:00 +1°C° 0 mm 1 m/s 732 mmHg 60%
    20:00 +1°C° 0 mm 1 m/s 732 mmHg 59%
    21:00 +1°C° 0 mm 1 m/s 732 mmHg 58%
    22:00 +1°C° 0 mm 1 m/s 732 mmHg 55%
    23:00 +1°C° 0 mm 1 m/s 732 mmHg 52%

    19 Ianuarie, Sâmbătă

    Timp Temperatura Precipitaţii Vânt Presiune Umiditate
    00:00 +1°C° 0 mm 1 m/s 732 mmHg 49%
    01:00 +1°C° 0 mm 1 m/s 732 mmHg 46%
    02:00 +2°C° 0 mm 1 m/s 732 mmHg 44%
    03:00 +2°C° 0 mm 1 m/s 732 mmHg 41%
    04:00 +2°C° 0 mm 1 m/s 732 mmHg 39%
    05:00 +2°C° 0 mm 1 m/s 732 mmHg 37%
    06:00 +2°C° 0 mm 1 m/s 732 mmHg 35%
    07:00 +2°C° 0 mm 1 m/s 732 mmHg 34%
    08:00 +3°C° 0 mm 1 m/s 732 mmHg 33%
    09:00 +3°C° 0 mm 1 m/s 733 mmHg 31%
    10:00 +5°C° 0 mm 1 m/s 733 mmHg 30%
    11:00 +6°C° 0 mm 1 m/s 733 mmHg 29%
    12:00 +8°C° 0 mm 1 m/s 733 mmHg 28%
    13:00 +7°C° 0 mm 1 m/s 732 mmHg 33%
    14:00 +7°C° 0 mm 1 m/s 732 mmHg 38%
    15:00 +7°C° 0 mm 1 m/s 732 mmHg 43%
    16:00 +6°C° 0 mm 1 m/s 732 mmHg 48%
    17:00 +3°C° 0 mm 0 m/s 732 mmHg 53%
    18:00 +2°C° 0 mm 0 m/s 733 mmHg 58%
    19:00 +2°C° 0 mm 0 m/s 733 mmHg 59%
    20:00 +3°C° 0 mm 1 m/s 733 mmHg 60%
    21:00 +2°C° 0 mm 1 m/s 733 mmHg 61%
    22:00 +2°C° 0 mm 1 m/s 733 mmHg 60%
    23:00 +2°C° 0 mm 1 m/s 733 mmHg 59%

    20 Ianuarie, Duminică

    Timp Temperatura Precipitaţii Vânt Presiune Umiditate
    00:00 +2°C° 0 mm 1 m/s 733 mmHg 58%
    01:00 +2°C° 0 mm 1 m/s 733 mmHg 58%
    02:00 +1°C° 0 mm 0 m/s 734 mmHg 58%
    03:00 +1°C° 0 mm 0 m/s 734 mmHg 58%
    04:00 +1°C° 0 mm 0 m/s 734 mmHg 60%
    05:00 +2°C° 0 mm 1 m/s 734 mmHg 62%
    06:00 +2°C° 0 mm 1 m/s 734 mmHg 64%
    07:00 +2°C° 0 mm 1 m/s 734 mmHg 63%
    08:00 +2°C° 0 mm 1 m/s 734 mmHg 63%
    09:00 +1°C° 0 mm 2 m/s 734 mmHg 62%
    10:00 +2°C° 0 mm 2 m/s 734 mmHg 57%
    11:00 +3°C° 0 mm 2 m/s 734 mmHg 52%
    12:00 +4°C° 0 mm 2 m/s 733 mmHg 47%
    13:00 +5°C° 0 mm 2 m/s 733 mmHg 50%
    14:00 +5°C° 0 mm 2 m/s 733 mmHg 52%
    15:00 +5°C° 0 mm 2 m/s 732 mmHg 55%
    16:00 +4°C° 0 mm 2 m/s 733 mmHg 62%
    17:00 +3°C° 0 mm 2 m/s 733 mmHg 69%
    18:00 +2°C° 0 mm 2 m/s 733 mmHg 77%
    19:00 +1°C° 0 mm 2 m/s 733 mmHg 79%
    20:00 +1°C° 0 mm 2 m/s 733 mmHg 81%
    21:00 -1°C° 0 mm 2 m/s 733 mmHg 83%
    22:00 -1°C° 0 mm 2 m/s 733 mmHg 82%
    23:00 -1°C° 0 mm 2 m/s 733 mmHg 81%

    21 Ianuarie, Luni

    Timp Temperatura Precipitaţii Vânt Presiune Umiditate
    00:00 +1°C° 0 mm 1 m/s 733 mmHg 80%
    01:00 +1°C° 0 mm 1 m/s 732 mmHg 79%
    02:00 +1°C° 0 mm 1 m/s 732 mmHg 79%
    03:00 +1°C° 0 mm 1 m/s 732 mmHg 78%
    04:00 +1°C° 0 mm 1 m/s 732 mmHg 78%
    05:00 +1°C° 0 mm 1 m/s 732 mmHg 78%
    06:00 +1°C° 0 mm 1 m/s 731 mmHg 78%
    07:00 +1°C° 0 mm 1 m/s 731 mmHg 75%
    08:00 +2°C° 0 mm 1 m/s 731 mmHg 72%
    09:00 +2°C° 0 mm 1 m/s 731 mmHg 69%
    10:00 +3°C° 0 mm 1 m/s 730 mmHg 63%
    11:00 +5°C° 0 mm 1 m/s 730 mmHg 57%
    12:00 +6°C° 0 mm 1 m/s 729 mmHg 51%
    13:00 +6°C° 0 mm 1 m/s 729 mmHg 52%
    14:00 +6°C° 0 mm 1 m/s 729 mmHg 54%
    15:00 +7°C° 0 mm 1 m/s 728 mmHg 55%
    16:00 +5°C° 0 mm 1 m/s 729 mmHg 60%
    17:00 +4°C° 0 mm 1 m/s 729 mmHg 66%
    18:00 +3°C° 0 mm 1 m/s 729 mmHg 71%
    19:00 +3°C° 0 mm 1 m/s 729 mmHg 69%
    20:00 +3°C° 0 mm 1 m/s 729 mmHg 66%
    21:00 +3°C° 0 mm 1 m/s 729 mmHg 64%
    22:00 +3°C° 0 mm 1 m/s 728 mmHg 61%
    23:00 +3°C° 0 mm 1 m/s 728 mmHg 58%
    Arată mai mult